Location: Unspecified
(0.0000°N, 0.0000°E)
Time: 02:24:00
(UTC+00:00)

Vanguard 1 Rocket - Pass Details

Date: 28 November 2022
Orbit: 651 x 4224 km, 34.3° (Epoch: 07 February)

Event Time Altitude Azimuth Distance (km) Brightness Sun altitude
Rises 22:38:31 0° 223° (SW) 7,468 12.5 -62.7°
Reaches altitude 10° 22:45:44 10° 211° (SSW) 5,790 11.7 -63.7°
Enters shadow 22:54:30 23° 182° (S) 3,836 10.6 -64.9°
